Weather in Asanovo

Kazakhstan     54°51′13″N   69°26′51″E
temp.,
°C
wind,
m/s
gust,
m/s
humid.,
%
clouds,
%
prec.,
mm/h
press.,
hPa
HPBL,
m
22 october, fri
fri2200:00+2w71195100 0.8 1005767
03:000w7119596 0.6 1008733
06:000wsw611778 0.7 1010450
09:000sw61377100 0.0 1010599
12:00+3sw8136099 0.0 10101072
15:00+4sw91369100 0.0 10101167
18:00+2sw71289100 0.1 1010917
21:00+3sw71396100 0.0 1011596
23 october, sat
sat2300:00+4ssw71587100 0.0 1010604
03:00+5sw91790100 0.8 1008748
06:00+6sw91678100 0.9 1008784
09:00+6wsw91771100 0.0 1008729
12:00+8wsw9166782 0.0 1009714
15:00+11wsw9136010 0.0 10101054
18:00+10wsw8146731 0.0 1011671
21:00+10wsw81471100 0.0 1013832
24 october, sun
sun2400:00+8wsw715795 0.0 1015530
03:00+7wsw6148564 0.0 1015414
06:00+6wsw6129129 0.0 1017329
09:00+6sw4109493 0.0 1018246
12:00+9sw577495 0.0 1018424
15:00+11sw51067100 0.0 1017894
18:00+10ssw61276100 0.1 1016544
21:00+11sw91759100 0.0 1014813
25 october, mon
mon2500:00+10sw91838100 0.0 1013643
03:00+9sw8164297 0.0 1012546
06:00+9wsw61245100 0.0 1014599
09:00+8wsw3762100 0.0 1015260
12:00+9wsw3563100 0.0 1016645
15:00+10ssw3357100 0.0 1016713
18:00+8sse3467100 0.0 1016166
21:00+8sse3663100 0.0 1014146
26 october, tue
tue2600:00+8s51069100 0.2 1013370
03:00+8s41088100 2.0 1011421
06:00+8sse2371100 2.4 100876
09:00+8sw1168100 0.1 100637
12:00+9w3969100 0.1 1007663
15:00+3nnw61195100 0.9 1009495
18:00+4nnw6979100 1.0 1011952
21:00+1n61073100 0.0 1014734